Regional Weather Roundup
Issued by NWS Albany, NY

Home | Current Version | Previous Version | Graphics & Text | Print | Product List | Glossary Off
Versions: 1 2 3 4 5 6 7 8 9 10 11 12 13 14 15 16 17 18 19 20 21 22 23 24 25 26 27 28 29 30 31 32 33 34 35 36 37 38 39 40 41 42 43 44 45 46 47 48 49 50

000
ASUS41 KALY 180110
RWRALY

NEW YORK STATE HOURLY WEATHER ROUNDUP
NATIONAL WEATHER SERVICE ALBANY NY
800 PM EST WED DEC 17 2014

NOTE: "FAIR" INDICATES FEW OR NO CLOUDS BELOW 12,000 FEET WITH NO
SIGNIFICANT WEATHER AND/OR NO OBSTRUCTIONS TO VISIBILITY.

NYZ032-033-038>043-046>054-057>066-NYZ062>081-180200-
EAST


CITY           SKY/WX    TMP DP  RH WIND       PRES   REMARKS
ALBANY         CLOUDY    38  29  70 NW13G23   29.86S WCI  30
GLENS FALLS    CLOUDY    38  31  76 SW9       29.81S WCI  31
POUGHKEEPSIE   CLOUDY    43  31  62 W9        29.85F
NEWBURGH       MOCLDY    39  34  81 W12       29.88S WCI  32
MONTGOMERY     MOCLDY    40  31  70 W7        29.87R
WHITE PLAINS   MOCLDY    42  31  64 NW16      29.85S
ISLIP          MOCLDY    45  33  63 W12       29.84S
NEW YORK CITY  LGT RAIN  45  36  70 NW17      29.88S
CENTRAL PARK   CLOUDY    45  35  68 VRB3      29.91R
$$

NYZ005>009-017-018-044>046-055-056-180200-
CENTRAL


CITY           SKY/WX    TMP DP  RH WIND       PRES   REMARKS
FULTON         CLOUDY    35  30  82 W14       29.89S WCI  26
SYRACUSE       FLURRIES  33  32  96 W18       29.91R WCI  22
ROME           LGT SNOW  33  32  96 W8        29.89F FOG     WCI  26
ELMIRA         CLOUDY    36  26  67 W15G25    29.93R WCI  27
BINGHAMTON     CLOUDY    32  29  88 W10       29.87R WCI  24
MONTICELLO     CLOUDY    34  30  86 W12       29.86S WCI  25
$$

NYZ026>034-041>043-180200-
NORTH


CITY           SKY/WX    TMP DP  RH WIND       PRES   REMARKS
WATERTOWN      CLOUDY    39  32  76 W15G25    29.84S WCI  31
FORT DRUM      NOT AVBL
MASSENA        LGT RAIN  35  34  96 W3        29.80S FOG
SARANAC LAKE   LGT SNOW  32  32 100 SW8       29.73S WCI  25
PLATTSBURGH    FOG       35  34  96 CALM      29.77S VSB 1/2
$$

NYZ001>004-010>016-019>021-180200-
WEST


CITY           SKY/WX    TMP DP  RH WIND       PRES   REMARKS
NIAGARA FALLS  FLURRIES  32  28  85 W16       29.98R WCI  21
BUFFALO        LGT SNOW  32  27  81 W16G28    29.98R WCI  21
DUNKIRK        CLOUDY    33  26  75 W17G26    30.03R WCI  22
JAMESTOWN      CLOUDY    28  21  74 W16G23    29.99R WCI  17
WELLSVILLE     FLURRIES  29  24  82 W14       29.94R WCI  18
ROCHESTER      LGT SNOW  34  29  82 W17G23    29.94R WCI  23
PENN YAN       FLURRIES  35  26  69 W14G25    29.92R WCI  26
$$

             KEY
       WCI = WIND CHILL INDEX
       VSB = VISIBILITY
       HX  = HEAT INDEX
$$


USA.gov is the U.S. government's official web portal to all federal, state and local government web resources and services.